Location: Huesca
(42.1318°N, 0.4078°W)
Time: 14:40:22
(UTC+02:00)

Vanguard 2 Rocket - All Passes

Search period start: 19 July 2024 00:00
Search period end: 29 July 2024 00:00
Orbit: 555 x 3302 km, 32.9° (Epoch: 19 July)

Date Brightness Start Highest point End Pass type
(mag) Time Alt. Az. Time Alt. Az. Time Alt. Az.
19 Jul - 00:47:11 10° W 00:55:42 46° S 01:10:00 10° SE visible
19 Jul - 03:00:33 10° W 03:10:38 30° SSW 03:24:51 10° SSE visible
19 Jul - 05:22:15 10° SW 05:25:51 11° SW 05:29:39 10° SSW visible
19 Jul - 19:26:30 10° SSE 19:27:58 11° SE 19:29:34 10° SE daylight
19 Jul - 21:34:09 10° SW 21:39:23 37° SSE 21:47:50 10° E daylight
19 Jul - 23:45:11 10° WSW 23:52:26 47° S 00:04:56 10° ESE visible
20 Jul - 01:57:38 10° W 02:06:49 35° SSW 02:20:53 10° SE visible
20 Jul - 04:14:04 10° WSW 04:21:55 16° SW 04:31:21 10° S visible
20 Jul - 20:33:00 10° SSW 20:37:11 26° SSE 20:43:14 10° ESE daylight
20 Jul - 22:43:24 10° WSW 22:49:31 45° S 22:59:57 10° ESE visible
21 Jul - 00:55:13 10° WSW 01:03:17 39° SSW 01:16:25 10° SE visible
21 Jul - 03:09:28 10° WSW 03:18:02 22° SSW 03:29:27 10° SSE visible
21 Jul - 19:32:24 10° S 19:35:13 16° SSE 19:38:39 10° ESE daylight
21 Jul - 21:41:49 10° WSW 21:46:56 39° S 21:55:14 10° ESE daylight
21 Jul - 23:53:07 10° WSW 00:00:03 41° S 00:11:42 10° SE visible
22 Jul - 02:06:06 10° WSW 02:14:20 26° SSW 02:26:16 10° SSE visible
22 Jul - 20:40:24 10° SW 20:44:38 30° SSE 20:50:52 10° ESE daylight
22 Jul - 22:51:16 10° WSW 22:57:08 41° S 23:06:59 10° ESE visible
23 Jul - 01:03:25 10° WSW 01:10:51 30° SSW 01:22:22 10° SE visible
23 Jul - 03:19:44 10° WSW 03:25:29 14° SSW 03:32:23 10° S visible
23 Jul - 19:39:18 10° SSW 19:42:34 20° SSE 19:46:45 10° ESE daylight
23 Jul - 21:49:33 10° WSW 21:54:31 38° S 22:02:30 10° ESE visible
24 Jul - 00:01:09 10° WSW 00:07:39 33° SSW 00:18:06 10° SE visible
24 Jul - 02:15:12 10° WSW 02:21:50 18° SSW 02:30:40 10° S visible
24 Jul - 18:38:55 10° S 18:40:35 12° SSE 18:42:23 10° SE daylight
24 Jul - 20:47:59 10° SW 20:52:11 32° S 20:58:19 10° ESE daylight
24 Jul - 22:59:10 10° WSW 23:04:45 35° S 23:13:46 10° SE visible
25 Jul - 01:11:59 10° WSW 01:18:25 22° SSW 01:27:39 10° SSE visible
25 Jul - 19:46:33 10° SW 19:50:01 24° SSE 19:54:30 10° ESE daylight
25 Jul - 21:57:22 10° WSW 22:02:08 35° S 22:09:33 10° ESE visible
26 Jul - 00:09:25 10° WSW 00:15:16 25° SSW 00:24:03 10° SSE visible
26 Jul - 02:26:41 10° SW 02:29:23 11° SSW 02:32:21 10° SSW visible
26 Jul - 18:45:20 10° SSW 18:47:57 17° SSE 18:50:52 10° ESE daylight
26 Jul - 20:55:40 10° WSW 20:59:45 32° S 21:05:38 10° ESE daylight
26 Jul - 23:07:14 10° WSW 23:12:23 28° S 23:20:12 10° SE visible
27 Jul - 01:21:28 10° SW 01:26:01 14° SSW 01:31:42 10° S visible
27 Jul - 17:45:07 10° SSE 17:45:51 10° SSE 17:46:35 10° SE daylight
27 Jul - 19:54:00 10° SW 19:57:31 27° S 20:02:02 10° ESE daylight
27 Jul - 22:05:16 10° WSW 22:09:44 29° S 22:16:23 10° SE visible
28 Jul - 00:18:10 10° WSW 00:22:52 18° SSW 00:29:11 10° SSE visible
28 Jul - 18:52:23 10° SW 18:55:23 21° SSE 18:58:46 10° ESE daylight
28 Jul - 21:03:25 10° WSW 21:07:19 28° S 21:12:44 10° SE daylight
28 Jul - 23:15:35 10° WSW 23:19:59 20° SSW 23:26:05 10° SSE visible
